Weather History for Cairo, IL

Change the Weather History Date:

Saturday, January 11, 2014

  Actual Average Record
Temperature  
Mean Temperature 44 °F -  
Max Temperature 50 °F 36 °F 66 °F (2005)
Min Temperature 39 °F 22 °F 1 °F (1962)
Degree Days  
Heating Degree Days 20    
Moisture  
Dew Point 39 °F    
Average Humidity 79    
Maximum Humidity 92    
Minimum Humidity 63    
Precipitation  
Precipitation 0.02 in - - ()
Sea Level Pressure  
Sea Level Pressure 29.78 in    
Wind  
Wind Speed 8 mph (WSW)    
Max Wind Speed 13 mph    
Max Gust Speed 20 mph    
Visibility 10 miles    
Events Rain    
Averages and records for this station are not official NWS values.
T = Trace of Precipitation, MM = Missing Value Source: NWS Daily Summary

Daily Weather History Graph

Daily Weather History Graph

Search for Another Location

Airport:

Trip Planner

Search our weather history database for the weather conditions in past years. The results will help you decide how hot, cold, wet, or windy it might be!

Date:

Astronomy

Jan. 11, 2014 Rise Set
Actual Time 7:10 AM CST 4:59 PM CST
Civil Twilight 6:41 AM CST 5:28 PM CST
Nautical Twilight 6:09 AM CST 6:00 PM CST
Astronomical Twilight 5:38 AM CST 6:31 PM CST
Moon 1:42 PM CST (1/11) 3:16 AM CST (1/11)
Length of Visible Light 10h 46m
Length of Day
9h 49m
Waxing Gibbous, 83% of the Moon is Illuminated
Jan 11
Waxing Gibbous
Jan 15
Full
Jan 23
Last Quarter
Jan 30
New
Feb 6
First Quarter

Hourly Weather History & Observations

Time (CST) Temp. Windchill Dew Point Humidity Pressure Visibility Wind Dir Wind Speed Gust Speed Precip Events Conditions
12:15 AM 49.8 °F - 47.5 °F 92% 29.63 in 7.0 mi SSW 6.9 mph 19.6 mph 0.02 in Rain Light Rain
12:35 AM 50.5 °F - 48.2 °F 92% 29.61 in 10.0 mi South 5.8 mph - 0.02 in   Overcast
12:55 AM 50.4 °F - 48.0 °F 92% 29.60 in 10.0 mi SSW 6.9 mph - 0.02 in   Mostly Cloudy
1:15 AM 50.4 °F - 48.0 °F 92% 29.59 in 10.0 mi South 6.9 mph - N/A   Overcast
1:35 AM 50.0 °F - 47.7 °F 92% 29.60 in 10.0 mi South 6.9 mph - N/A   Overcast
1:55 AM 50.4 °F - 48.2 °F 92% 29.61 in 10.0 mi SSW 9.2 mph - N/A   Overcast
2:15 AM 50.4 °F - 48.2 °F 92% 29.62 in 7.0 mi SSW 11.5 mph - N/A   Overcast
2:35 AM 50.0 °F - 47.8 °F 92% 29.62 in 10.0 mi SW 12.7 mph 18.4 mph N/A   Mostly Cloudy
2:55 AM 49.1 °F - 46.8 °F 92% 29.62 in 10.0 mi SW 11.5 mph 16.1 mph N/A   Scattered Clouds
3:15 AM 48.6 °F - 46.4 °F 92% 29.63 in 10.0 mi WSW 11.5 mph 16.1 mph N/A   Scattered Clouds
3:35 AM 47.7 °F - 45.5 °F 92% 29.64 in 10.0 mi WSW 10.4 mph - N/A   Clear
3:55 AM 47.1 °F - 45.0 °F 92% 29.64 in 10.0 mi WSW 6.9 mph - N/A   Clear
4:15 AM 45.9 °F 40.8 °F 43.7 °F 92% 29.65 in 10.0 mi WSW 10.4 mph - N/A   Clear
4:35 AM 45.5 °F 40.8 °F 43.2 °F 92% 29.66 in 10.0 mi WSW 9.2 mph - N/A   Clear
4:55 AM 45.0 °F 40.1 °F 42.8 °F 92% 29.66 in 10.0 mi WSW 9.2 mph - N/A   Clear
5:15 AM 43.5 °F 37.9 °F 40.8 °F 90% 29.67 in 10.0 mi West 10.4 mph - N/A   Clear
5:35 AM 43.0 °F 38.2 °F 39.6 °F 88% 29.68 in 10.0 mi West 8.1 mph - N/A   Clear
5:55 AM 41.7 °F 36.7 °F 37.9 °F 86% 29.69 in 10.0 mi West 8.1 mph - N/A   Clear
6:15 AM 41.0 °F 36.4 °F 36.7 °F 85% 29.69 in 10.0 mi WSW 6.9 mph - N/A   Clear
6:35 AM 40.6 °F 35.4 °F 36.5 °F 85% 29.71 in 10.0 mi WSW 8.1 mph - N/A   Clear
6:55 AM 40.6 °F 35.4 °F 36.1 °F 84% 29.72 in 10.0 mi WSW 8.1 mph - N/A   Clear
7:15 AM 40.1 °F 35.3 °F 35.6 °F 84% 29.72 in 10.0 mi SW 6.9 mph - N/A   Clear
7:35 AM 40.1 °F 36.1 °F 35.2 °F 83% 29.73 in 10.0 mi WSW 5.8 mph - N/A   Clear
7:55 AM 40.5 °F 36.5 °F 35.6 °F 83% 29.73 in 10.0 mi WSW 5.8 mph - N/A   Clear
8:15 AM 41.0 °F 36.4 °F 35.6 °F 81% 29.75 in 10.0 mi WSW 6.9 mph - N/A   Clear
8:35 AM 41.9 °F 37.5 °F 36.1 °F 80% 29.75 in 10.0 mi WSW 6.9 mph - N/A   Clear
8:55 AM 42.4 °F 38.1 °F 36.5 °F 79% 29.76 in 10.0 mi WSW 6.9 mph - N/A   Clear
9:15 AM 43.0 °F 38.2 °F 36.7 °F 78% 29.77 in 10.0 mi WSW 8.1 mph - N/A   Clear
9:35 AM 43.7 °F 38.6 °F 36.9 °F 77% 29.79 in 10.0 mi WSW 9.2 mph - N/A   Clear
9:55 AM 44.2 °F 40.3 °F 37.2 °F 76% 29.80 in 10.0 mi WSW 6.9 mph - N/A   Clear
10:15 AM 44.8 °F 39.9 °F 37.4 °F 75% 29.81 in 10.0 mi WSW 9.2 mph - N/A   Clear
10:35 AM 45.5 °F 40.3 °F 37.6 °F 74% 29.81 in 10.0 mi WSW 10.4 mph - N/A   Clear
10:55 AM 46.0 °F 41.4 °F 37.8 °F 73% 29.80 in 10.0 mi West 9.2 mph - N/A   Mostly Cloudy
11:15 AM 46.2 °F 40.8 °F 37.9 °F 73% 29.79 in 10.0 mi West 11.5 mph - N/A   Mostly Cloudy
11:35 AM 45.9 °F 41.7 °F 37.4 °F 72% 29.79 in 10.0 mi West 8.1 mph - N/A   Mostly Cloudy
11:55 AM 46.0 °F 41.0 °F 37.4 °F 72% 29.78 in 10.0 mi West 10.4 mph - N/A   Mostly Cloudy
12:15 PM 47.8 °F - 38.7 °F 70% 29.78 in 10.0 mi West 11.5 mph - N/A   Scattered Clouds
12:35 PM 47.1 °F - 37.8 °F 70% 29.77 in 10.0 mi West 9.2 mph - N/A   Scattered Clouds
12:55 PM 48.2 °F - 38.8 °F 70% 29.77 in 10.0 mi WSW 11.5 mph - N/A   Clear
1:15 PM 49.1 °F - 39.0 °F 68% 29.78 in 10.0 mi WSW 9.2 mph - N/A   Scattered Clouds
1:35 PM 49.5 °F - 39.0 °F 67% 29.78 in 10.0 mi WSW 10.4 mph 16.1 mph N/A   Scattered Clouds
1:55 PM 50.0 °F - 38.7 °F 65% 29.79 in 10.0 mi WSW 10.4 mph - N/A   Clear
2:15 PM 49.8 °F - 38.3 °F 65% 29.79 in 10.0 mi WSW 10.4 mph 17.3 mph N/A   Clear
2:35 PM 50.0 °F - 38.5 °F 65% 29.80 in 10.0 mi SW 11.5 mph - N/A   Clear
2:55 PM 50.2 °F - 38.8 °F 65% 29.81 in 10.0 mi WSW 8.1 mph - N/A   Clear
3:15 PM 50.5 °F - 38.7 °F 64% 29.81 in 10.0 mi SW 10.4 mph - N/A   Clear
3:35 PM 50.2 °F - 38.1 °F 63% 29.81 in 10.0 mi SW 10.4 mph - N/A   Clear
3:55 PM 50.0 °F - 37.9 °F 63% 29.82 in 10.0 mi SW 9.2 mph - N/A   Clear
4:15 PM 49.3 °F - 37.4 °F 64% 29.82 in 10.0 mi SW 6.9 mph - N/A   Clear
4:35 PM 47.8 °F - 36.7 °F 65% 29.83 in 10.0 mi SW 8.1 mph - N/A   Scattered Clouds
4:55 PM 47.8 °F - 38.3 °F 70% 29.83 in 10.0 mi SSW 11.5 mph - N/A   Mostly Cloudy
5:15 PM 47.1 °F - 38.8 °F 73% 29.84 in 10.0 mi SSW 11.5 mph 16.1 mph N/A   Overcast
5:35 PM 46.4 °F 41.5 °F 38.7 °F 74% 29.84 in 10.0 mi SSW 10.4 mph - N/A   Overcast
5:55 PM 45.5 °F 40.8 °F 38.3 °F 76% 29.85 in 10.0 mi SSW 9.2 mph - N/A   Scattered Clouds
6:15 PM 44.8 °F 39.4 °F 37.8 °F 76% 29.86 in 10.0 mi SSW 10.4 mph - N/A   Clear
6:35 PM 44.6 °F 40.2 °F 37.8 °F 77% 29.87 in 10.0 mi SSW 8.1 mph - N/A   Clear
6:55 PM 44.1 °F 39.5 °F 37.6 °F 78% 29.87 in 10.0 mi SSW 8.1 mph - N/A   Clear
7:15 PM 43.9 °F 39.3 °F 37.4 °F 78% 29.89 in 10.0 mi SSW 8.1 mph - N/A   Scattered Clouds
7:35 PM 43.7 °F 38.6 °F 37.0 °F 77% 29.89 in 10.0 mi SW 9.2 mph - N/A   Mostly Cloudy
7:55 PM 43.2 °F 38.4 °F 36.5 °F 77% 29.90 in 10.0 mi SW 8.1 mph - N/A   Scattered Clouds
8:15 PM 42.8 °F 38.0 °F 35.8 °F 76% 29.91 in 10.0 mi SW 8.1 mph - N/A   Clear
8:35 PM 42.6 °F 39.9 °F 35.4 °F 76% 29.92 in 10.0 mi WSW 4.6 mph - N/A   Clear
8:55 PM 41.9 °F 37.5 °F 34.9 °F 76% 29.93 in 10.0 mi West 6.9 mph - N/A   Clear
9:15 PM 41.9 °F 37.5 °F 34.9 °F 76% 29.94 in 10.0 mi West 6.9 mph - N/A   Clear
9:35 PM 41.9 °F 37.5 °F 34.9 °F 76% 29.95 in 10.0 mi West 6.9 mph - N/A   Clear
9:55 PM 41.4 °F 38.4 °F 34.5 °F 77% 29.95 in 10.0 mi West 4.6 mph - N/A   Clear
10:15 PM 40.6 °F 36.0 °F 34.0 °F 77% 29.95 in 10.0 mi West 6.9 mph - N/A   Clear
10:35 PM 40.6 °F 37.5 °F 33.8 °F 77% 29.95 in 10.0 mi West 4.6 mph - N/A   Clear
10:55 PM 39.9 °F 36.7 °F 33.1 °F 77% 29.95 in 10.0 mi West 4.6 mph - N/A   Clear
11:15 PM 39.6 °F 36.3 °F 32.7 °F 76% 29.95 in 10.0 mi West 4.6 mph - N/A   Clear
11:35 PM 39.2 °F 34.2 °F 32.5 °F 77% 29.97 in 10.0 mi WSW 6.9 mph - N/A   Clear
11:55 PM 39.0 °F 35.7 °F 32.4 °F 77% 29.97 in 10.0 mi WSW 4.6 mph - N/A   Clear